Tracking 18851 objects as of 24-Nov-2017
HD Live streaming from Space Station
objects crossing your sky now

FENGYUN 1C DEB

Track FENGYUN 1C DEB now!
10-day predictions


NORAD ID: 31673
Int'l Code: 1999-025CCF
Perigee: 711.6 km
Apogee: 900.4 km
Inclination: 99.3 °
Period: 100.8 minutes
Semi major axis: 7176 km
RCS: 0.0088 m2 (small)
Launch date: May 10, 1999
Source: People's Republic of China (PRC)
Launch site: Taiyaun Space Center, China (TSC)

Note: This is SATELLITE DEBRIS
aabbcc
Your satellite tracking list
Your tracking list is empty




NASA's NSSDC Master Catalog

Two Line Element Set (TLE):
1 31673U 99025CCF 17317.05457139  .00000099  00000-0  55469-4 0  9999
2 31673  99.3096 260.1777 0131532 234.6922 124.1899 14.27881851550550
Source of the keplerian elements: AFSPC